GW1572 Weather Reports


Display with metric or nautical units.
time (UTC)temp
F
wind
direction
speed
MPH
gust
MPH
rain 1hr
in
rain 24hr
in
rain mn
in
humidity
%
barometer
mb
20260905171444 80 271 1.0 2.0 0.00 0.00 0.09 85 1005.7
20260905170542 79 253 2.0 2.0 0.00 0.00 0.09 86 1006.0
20260905170127 79 137 1.0 1.0 0.00 0.00 0.09 87 1005.7
20260905165711 79 115 0.0 0.0 0.00 0.00 0.09 87 1006.0
20260905165253 79 117 0.0 0.0 0.00 0.00 0.09 88 1006.0
20260905164836 79 196 2.0 2.0 0.00 0.00 0.09 87 1006.0
20260905164422 80 179 0.0 1.0 0.00 0.00 0.09 87 1006.0
20260905163949 79 146 0.0 0.0 0.00 0.00 0.09 85 1006.0
20260905163518 80 156 0.0 0.0 0.00 0.00 0.09 87 1006.0
20260905163048 79 145 0.0 0.0 0.00 0.00 0.09 88 1006.0
20260905162632 79 146 0.0 1.0 0.00 0.00 0.09 88 1005.7
20260905162200 79 144 0.0 0.0 0.00 0.00 0.09 90 1006.0
20260905161743 79 131 0.0 0.0 0.00 0.00 0.09 89 1006.0
20260905161327 78 168 0.0 1.0 0.00 0.00 0.09 90 1006.0
20260905160856 77 142 0.0 0.0 0.00 0.00 0.09 90 1006.0
20260905160442 77 153 0.0 0.0 0.00 0.00 0.09 91 1006.4
20260905160011 76 138 0.0 0.0 0.00 0.00 0.09 94 1006.4
20260905155541 76 354 2.0 2.0 0.00 0.00 0.09 93 1006.4
20260905154209 76 196 1.0 1.0 0.00 0.00 0.09 93 1006.0
20260905153736 76 230 1.0 2.0 0.00 0.00 0.09 93 1006.4
20260905153318 76 141 0.0 0.0 0.00 0.00 0.09 96 1006.0
20260905152901 76 134 0.0 1.0 0.00 0.00 0.09 95 1006.0
20260905152444 75 110 0.0 1.0 0.00 0.00 0.09 96 1005.4
20260905152027 75 139 0.0 0.0 0.00 0.00 0.09 98 1005.4
20260905151555 75 86 0.0 0.0 0.00 0.00 0.09 99 1005.4
20260905151140 74 115 0.0 0.0 0.00 0.00 0.09 98 1005.0
20260905150722 74 101 1.0 1.0 0.00 0.00 0.09 98 1005.4
20260905150305 74 323 2.0 2.0 0.00 0.00 0.09 97 1005.7
20260905145849 74 278 3.0 4.0 0.00 0.00 0.09 98 1006.0
20260905145432 74 305 2.0 2.0 0.00 0.00 0.09 99 1006.0
20260905145017 73 25 1.0 2.0 0.00 0.00 0.09 99 1005.7
20260905144559 73 88 1.0 1.0 0.00 0.00 0.09 99 1005.4
20260905144144 73 148 0.0 0.0 0.00 0.00 0.09 99 1005.7
20260905143726 73 132 0.0 0.0 0.00 0.00 0.09 99 1005.7
20260905143256 73 67 1.0 2.0 0.00 0.00 0.09 99 1005.7
20260905142823 73 129 0.0 1.0 0.00 0.00 0.09 99 1005.0
20260905142407 72 129 0.0 0.0 0.00 0.00 0.09 99 1005.0
20260905141948 72 99 1.0 1.0 0.00 0.00 0.09 99 1005.7
20260905141533 72 105 1.0 1.0 0.00 0.00 0.09 99 1005.7
20260905140631 74 132 0.0 0.0 0.00 0.00 0.09 99 1005.4
20260905140215 73 132 0.0 0.0 0.00 0.00 0.09 99 1005.7
20260905135756 72 131 0.0 0.0 0.00 0.00 0.09 99 1006.0
20260905135338 72 124 0.0 0.0 0.00 0.00 0.09 99 1006.4
20260905134451 72 144 0.0 0.0 0.00 0.00 0.09 99 1006.4
20260905134033 72 124 0.0 0.0 0.00 0.00 0.09 99 1006.4
20260905133600 72 112 0.0 0.0 0.00 0.00 0.09 99 1006.4
20260905133129 72 90 0.0 1.0 0.00 0.00 0.09 99 1006.4
20260905132711 72 134 0.0 0.0 0.00 0.00 0.09 99 1006.7
20260905131339 72 141 0.0 0.0 0.00 0.00 0.09 99 1007.1
20260905130922 72 134 0.0 0.0 0.00 0.00 0.09 99 1007.1
20260905130504 72 136 0.0 0.0 0.00 0.00 0.09 99 1007.1
20260905130032 72 143 0.0 0.0 0.00 0.00 0.09 99 1007.1
20260905125613 72 143 0.0 0.0 0.00 0.00 0.09 99 1007.1
20260905124254 71 126 0.0 0.0 0.00 0.00 0.09 99 1006.7
20260905123408 72 128 0.0 0.0 0.00 0.00 0.09 99 1006.7
20260905122951 72 88 0.0 1.0 0.00 0.00 0.09 99 1006.7
20260905122045 72 148 0.0 0.0 0.00 0.00 0.09 99 1006.7
20260905121631 72 134 0.0 0.0 0.00 0.00 0.09 99 1007.1
20260905121200 72 126 0.0 0.0 0.00 0.00 0.09 99 1006.7
20260905120258 72 71 1.0 1.0 0.00 0.00 0.09 99 1007.1
20260905114922 73 172 2.0 2.0 0.00 0.00 0.09 99 1007.1
20260905114452 73 185 3.0 3.0 0.00 0.00 0.00 99 1006.0
20260905114038 73 167 1.0 1.0 0.00 0.00 0.00 99 1005.7
20260905113622 73 144 0.0 0.0 0.00 0.00 0.00 99 1005.0
20260905113136 73 147 0.0 0.0 0.00 0.00 0.00 99 1005.0
20260905112706 73 119 0.0 0.0 0.00 0.00 0.00 99 1005.0
20260905112251 73 140 0.0 0.0 0.00 0.00 0.00 99 1005.0
20260905111821 73 136 0.0 0.0 0.00 0.00 0.00 99 1005.4
20260905111406 73 139 0.0 0.0 0.00 0.00 0.00 99 1005.7
20260905110949 73 168 1.0 1.0 0.00 0.00 0.00 99 1005.4
20260905110519 73 163 1.0 1.0 0.00 0.00 0.00 99 1005.4
20260905110105 73 198 3.0 3.0 0.00 0.00 0.00 99 1005.0
20260905105634 73 147 0.0 0.0 0.00 0.00 0.00 99 1005.4
20260905105147 72 255 8.0 11.0 0.00 0.00 0.00 99 1005.4
20260905104731 72 150 0.0 0.0 0.00 0.00 0.00 99 1004.4
20260905104315 72 139 0.0 0.0 0.00 0.00 0.00 99 1004.0
20260905103859 72 137 0.0 0.0 0.00 0.00 0.00 99 1004.0
20260905103427 72 135 0.0 0.0 0.00 0.00 0.00 99 1004.0
20260905103012 72 140 0.0 0.0 0.00 0.00 0.00 99 1004.0
20260905102542 72 140 0.0 0.0 0.00 0.00 0.00 99 1004.4
20260905102127 72 139 0.0 0.0 0.00 0.00 0.00 99 1004.0
20260905101657 72 140 0.0 0.0 0.00 0.00 0.00 99 1004.0
20260905100256 72 132 0.0 0.0 0.00 0.00 0.00 99 1004.4
20260905095838 72 120 0.0 0.0 0.00 0.00 0.00 99 1004.4
20260905095420 72 146 0.0 0.0 0.00 0.00 0.00 99 1004.7
20260905094101 72 143 0.0 0.0 0.00 0.00 0.00 99 1004.0
20260905093644 72 143 0.0 0.0 0.00 0.00 0.00 99 1004.0
20260905093229 72 144 0.0 0.0 0.00 0.00 0.00 99 1004.4
20260905092812 72 140 0.0 0.0 0.00 0.00 0.00 99 1004.0
20260905091455 72 138 0.0 0.0 0.00 0.00 0.00 99 1004.4
20260905091040 72 138 0.0 0.0 0.00 0.00 0.00 99 1004.4
20260905090626 72 138 0.0 0.0 0.00 0.00 0.00 99 1004.4
20260905090157 72 134 0.0 0.0 0.00 0.00 0.00 99 1004.0
20260905085744 72 135 0.0 0.0 0.00 0.00 0.00 99 1004.4
20260905085329 72 139 0.0 0.0 0.00 0.00 0.00 99 1004.4
20260905084859 72 137 0.0 0.0 0.00 0.00 0.00 99 1004.0
20260905084445 72 140 0.0 0.0 0.00 0.00 0.00 99 1004.4
20260905084028 72 144 0.0 0.0 0.00 0.00 0.00 99 1004.4
20260905083559 72 143 0.0 0.0 0.00 0.00 0.00 99 1004.4
20260905083144 72 140 0.0 0.0 0.00 0.00 0.00 99 1004.4
20260905082727 72 138 0.0 0.0 0.00 0.00 0.00 99 1004.0
20260905082311 73 138 0.0 0.0 0.00 0.00 0.00 99 1004.4
20260905081854 72 138 0.0 0.0 0.00 0.00 0.00 99 1004.4
20260905081438 72 138 0.0 0.0 0.00 0.00 0.00 99 1004.4
20260905081020 72 131 0.0 0.0 0.00 0.00 0.00 99 1004.0
20260905080131 72 131 0.0 0.0 0.00 0.00 0.00 99 1004.0
20260905075714 72 133 0.0 0.0 0.00 0.00 0.00 99 1004.0
20260905074825 72 133 0.0 0.0 0.00 0.00 0.00 99 1004.4
20260905073934 72 133 0.0 0.0 0.00 0.00 0.00 99 1004.0
20260905073032 72 132 0.0 0.0 0.00 0.00 0.00 99 1004.4
20260905072618 72 133 0.0 0.0 0.00 0.00 0.00 99 1004.4
20260905071301 72 135 0.0 0.0 0.00 0.00 0.00 99 1004.7
20260905070830 72 101 0.0 0.0 0.00 0.00 0.00 99 1004.7
20260905070414 72 144 0.0 0.0 0.00 0.00 0.00 99 1004.7
20260905070000 72 144 0.0 0.0 0.00 0.00 0.00 99 1004.7
20260905065544 72 144 0.0 0.0 0.00 0.00 0.00 99 1005.0
20260905065129 72 144 0.0 0.0 0.00 0.00 0.00 99 1005.0
20260905064713 72 144 0.0 0.0 0.00 0.00 0.00 99 1005.0
20260905064257 72 144 0.0 0.0 0.00 0.00 0.00 99 1005.4
20260905063841 72 144 0.0 0.0 0.00 0.00 0.00 99 1005.4
20260905063426 73 144 0.0 0.0 0.00 0.00 0.00 99 1005.4
20260905062509 73 141 0.0 0.0 0.00 0.00 0.00 99 1005.4
20260905062037 73 139 0.0 0.0 0.00 0.00 0.00 99 1005.4
20260905061621 73 138 0.0 0.0 0.00 0.00 0.00 99 1005.7
20260905061204 73 138 0.0 0.0 0.00 0.00 0.00 99 1005.7
20260905060746 73 142 0.0 0.0 0.00 0.00 0.00 99 1006.0
20260905060329 73 142 0.0 0.0 0.00 0.00 0.00 99 1005.7
20260905055912 73 142 0.0 0.0 0.00 0.00 0.00 99 1006.0
20260905055456 73 142 0.0 0.0 0.00 0.00 0.00 99 1006.0
20260905055041 73 142 0.0 0.0 0.00 0.00 0.00 99 1006.0
20260905054625 73 142 0.0 0.0 0.00 0.00 0.00 99 1006.0
20260905054210 73 141 0.0 0.0 0.00 0.00 0.00 99 1006.0
20260905053753 73 140 0.0 0.0 0.00 0.00 0.00 99 1006.0
20260905053323 73 140 0.0 0.0 0.00 0.00 0.00 99 1006.4
20260905052851 73 140 0.0 0.0 0.00 0.00 0.00 99 1006.4
20260905052436 73 138 0.0 0.0 0.00 0.00 0.00 99 1006.4
20260905052020 73 135 0.0 0.0 0.00 0.00 0.00 99 1006.4
20260905051549 74 134 0.0 0.0 0.00 0.00 0.00 99 1006.4
20260905051120 74 132 0.0 0.0 0.00 0.00 0.00 99 1006.0
20260905050219 74 130 0.0 0.0 0.00 0.00 0.00 99 1006.4
20260905045802 74 130 0.0 0.0 0.00 0.00 0.00 99 1006.0
20260905045346 74 130 0.0 0.0 0.00 0.00 0.00 99 1006.0
20260905044915 74 131 0.0 0.0 0.00 0.00 0.00 99 1006.0
20260905044444 74 131 0.0 0.0 0.00 0.00 0.00 99 1006.0
20260905044028 74 126 0.0 0.0 0.00 0.00 0.00 99 1006.4
20260905043614 74 131 0.0 0.0 0.00 0.00 0.00 99 1006.4
20260905043158 74 131 0.0 0.0 0.00 0.00 0.00 99 1006.0
20260905042743 74 131 0.0 0.0 0.00 0.00 0.00 99 1006.0
20260905042257 74 131 0.0 0.0 0.00 0.00 0.00 99 1006.0
20260905041840 74 131 0.0 0.0 0.00 0.00 0.00 99 1006.0
20260905041409 74 131 0.0 0.0 0.00 0.00 0.00 99 1006.0
20260905040950 74 139 0.0 0.0 0.00 0.00 0.00 99 1006.0
20260905040534 74 136 0.0 0.0 0.00 0.00 0.00 99 1006.0
20260905040103 74 133 0.0 0.0 0.00 0.00 0.00 99 1006.0
20260905035632 74 137 0.0 0.0 0.00 0.00 0.00 99 1006.4
20260905035216 74 137 0.0 0.0 0.00 0.00 0.00 99 1006.0
20260905034800 74 138 0.0 0.0 0.00 0.00 0.00 99 1006.0
20260905034344 74 136 0.0 0.0 0.00 0.00 0.00 99 1006.0
20260905033927 74 140 0.0 0.0 0.00 0.00 0.00 99 1006.0
20260905033510 74 133 0.0 0.0 0.00 0.00 0.00 99 1006.4
20260905033051 74 138 0.0 0.0 0.00 0.00 0.00 99 1006.4
20260905032635 74 138 0.0 0.0 0.00 0.00 0.00 99 1006.4
20260905032204 75 138 0.0 0.0 0.00 0.00 0.00 99 1006.0
20260905031730 75 140 0.0 0.0 0.00 0.00 0.00 99 1006.0
20260905031312 75 134 0.0 0.0 0.00 0.00 0.00 99 1006.0
20260905030842 75 135 0.0 0.0 0.00 0.00 0.00 99 1006.0
20260905025938 75 139 0.0 0.0 0.00 0.00 0.00 99 1006.0
20260905025522 75 139 0.0 0.0 0.00 0.00 0.00 99 1006.0
20260905025106 75 138 0.0 0.0 0.00 0.00 0.00 99 1006.0
20260905024650 75 135 0.0 0.0 0.00 0.00 0.00 99 1006.0
20260905023747 75 141 0.0 0.0 0.00 0.00 0.00 99 1006.0
20260905022411 76 141 0.0 0.0 0.00 0.00 0.00 99 1006.0
20260905021938 76 140 0.0 0.0 0.00 0.00 0.00 98 1006.0
20260905021521 76 140 0.0 0.0 0.00 0.00 0.00 99 1006.0
20260905021104 76 142 0.0 0.0 0.00 0.00 0.00 98 1006.4
20260905020649 76 144 0.0 0.0 0.00 0.00 0.00 98 1006.0
20260905020234 76 140 0.0 0.0 0.00 0.00 0.00 98 1006.0
20260905015818 76 133 0.0 0.0 0.00 0.00 0.00 98 1006.0
20260905014931 76 143 0.0 0.0 0.00 0.00 0.00 98 1006.0
20260905014459 76 137 0.0 0.0 0.00 0.00 0.00 98 1006.0
20260905014044 77 138 0.0 0.0 0.00 0.00 0.00 97 1006.0
20260905013629 77 143 0.0 0.0 0.00 0.00 0.00 97 1006.0
20260905013212 77 143 0.0 0.0 0.00 0.00 0.00 97 1006.0
20260905012741 77 143 0.0 0.0 0.00 0.00 0.00 97 1006.0
20260905012323 77 143 0.0 0.0 0.00 0.00 0.00 97 1006.0
20260905011907 77 142 0.0 0.0 0.00 0.00 0.00 96 1006.0
20260905011449 77 140 0.0 0.0 0.00 0.00 0.00 96 1006.0
20260905010544 78 140 0.0 0.0 0.00 0.00 0.00 95 1006.0
20260905010128 78 141 0.0 0.0 0.00 0.00 0.00 96 1005.7
20260905005711 78 136 0.0 0.0 0.00 0.00 0.00 96 1005.7
20260905005255 78 135 0.0 0.0 0.00 0.00 0.00 95 1005.7
20260905004824 78 135 0.0 0.0 0.00 0.00 0.00 95 1005.7
20260905004407 78 135 0.0 0.0 0.00 0.00 0.00 95 1005.4
20260905003950 78 135 0.0 0.0 0.00 0.00 0.00 95 1005.4
20260905003104 79 130 0.0 0.0 0.00 0.00 0.00 95 1005.4
20260905002648 79 126 0.0 0.0 0.00 0.00 0.00 94 1005.0
20260905002231 79 110 0.0 0.0 0.00 0.00 0.00 93 1005.0
20260905001817 79 140 0.0 0.0 0.00 0.00 0.00 93 1005.0
20260905001400 80 136 0.0 0.0 0.00 0.00 0.00 92 1005.0
20260905000943 80 135 0.0 0.0 0.00 0.00 0.00 92 1005.0
20260905000525 81 90 0.0 0.0 0.00 0.00 0.00 91 1004.7
20260905000105 81 131 0.0 0.0 0.00 0.00 0.00 90 1005.0
20260904235217 82 146 0.0 0.0 0.00 0.00 0.00 88 1004.7
20260904234801 83 147 0.0 0.0 0.00 0.00 0.00 87 1004.7
20260904234331 83 142 0.0 0.0 0.00 0.00 0.00 87 1004.7
20260904233914 83 143 0.0 0.0 0.00 0.00 0.00 87 1004.7
20260904233443 84 119 0.0 0.0 0.00 0.00 0.00 85 1004.7
20260904233012 84 84 1.0 1.0 0.00 0.00 0.00 86 1004.4
20260904232111 85 149 0.0 0.0 0.00 0.00 0.00 83 1004.7
20260904231654 86 147 0.0 0.0 0.00 0.00 0.00 81 1004.4
20260904231223 87 142 0.0 0.0 0.00 0.00 0.00 79 1004.7
20260904230752 88 127 0.0 0.0 0.00 0.00 0.00 77 1004.4
20260904225849 90 148 0.0 0.0 0.00 0.00 0.00 73 1004.7
20260904225432 90 146 0.0 0.0 0.00 0.00 0.00 74 1005.0
20260904225016 90 150 0.0 0.0 0.00 0.00 0.00 73 1005.4
20260904224529 90 136 0.0 0.0 0.00 0.00 0.00 73 1005.7
20260904223153 88 174 0.0 1.0 0.00 0.00 0.00 77 1005.7
20260904222736 88 332 2.0 2.0 0.00 0.00 0.00 74 1006.0
20260904222319 88 77 1.0 1.0 0.00 0.00 0.00 74 1006.0
20260904221902 89 321 2.0 2.0 0.00 0.00 0.00 74 1006.0
20260904220943 90 141 1.0 2.0 0.00 0.00 0.00 72 1005.7
20260904220523 89 171 1.0 1.0 0.00 0.00 0.00 73 1006.0
20260904215646 89 29 2.0 2.0 0.00 0.00 0.00 72 1006.4
20260904215229 88 170 0.0 1.0 0.00 0.00 0.00 73 1006.4
20260904214755 87 227 0.0 0.0 0.00 0.00 0.00 80 1006.7
20260904214339 84 155 0.0 1.0 0.00 0.00 0.00 83 1006.7
20260904213902 83 141 0.0 0.0 0.00 0.00 0.00 87 1007.1
20260904213446 82 143 0.0 0.0 0.00 0.00 0.00 88 1006.7
20260904213013 82 139 0.0 0.0 0.00 0.00 0.00 87 1006.7
20260904212556 82 141 0.0 0.0 0.00 0.00 0.00 87 1006.7
20260904212140 82 139 1.0 1.0 0.00 0.00 0.00 87 1006.7
20260904211708 82 47 1.0 1.0 0.00 0.00 0.00 87 1006.7
20260904211236 82 100 1.0 1.0 0.00 0.00 0.00 86 1006.7
20260904210331 83 148 0.0 0.0 0.00 0.00 0.00 86 1006.4
20260904205914 83 115 0.0 0.0 0.00 0.00 0.00 85 1006.4
20260904204554 85 141 0.0 0.0 0.00 0.00 0.00 81 1006.4
20260904204137 86 134 0.0 0.0 0.00 0.00 0.00 79 1006.4
20260904203650 86 136 0.0 0.0 0.00 0.00 0.00 78 1006.0
20260904202801 88 142 0.0 0.0 0.00 0.00 0.00 75 1006.0
20260904202346 88 154 0.0 1.0 0.00 0.00 0.00 72 1005.7
20260904201928 89 196 1.0 1.0 0.00 0.00 0.00 70 1006.0
20260904201512 87 122 0.0 0.0 0.00 0.00 0.00 72 1006.0
20260904200606 86 237 2.0 3.0 0.00 0.00 0.00 75 1006.4
20260904195715 88 261 5.0 6.0 0.00 0.00 0.00 73 1006.7
20260904195241 89 199 1.0 1.0 0.00 0.00 0.00 69 1007.1
20260904194810 87 175 1.0 1.0 0.00 0.00 0.00 71 1006.7
20260904194337 88 184 3.0 3.0 0.00 0.00 0.00 70 1007.1
20260904193917 87 209 1.0 1.0 0.00 0.00 0.00 71 1007.1
20260904192958 86 67 2.0 4.0 0.00 0.00 0.00 75 1007.1
20260904192545 89 25 8.0 14.0 0.00 0.00 0.00 73 1007.1
20260904192114 89 143 0.0 0.0 0.00 0.00 0.00 81 1006.7
20260904191643 89 136 0.0 0.0 0.00 0.00 0.00 81 1006.4
20260904191208 89 136 0.0 0.0 0.00 0.00 0.00 82 1006.4
20260904190752 89 135 0.0 0.0 0.00 0.00 0.00 82 1006.0
20260904190323 89 151 0.0 0.0 0.00 0.00 0.00 81 1005.7
20260904185852 90 140 0.0 0.0 0.00 0.00 0.00 79 1005.7
20260904185436 90 141 0.0 1.0 0.00 0.00 0.00 78 1006.0
20260904184531 92 122 0.0 0.0 0.00 0.00 0.00 74 1006.0
20260904184059 93 138 0.0 0.0 0.00 0.00 0.00 72 1006.0
20260904183642 94 128 0.0 0.0 0.00 0.00 0.00 70 1006.4
20260904183225 96 17 1.0 1.0 0.00 0.00 0.00 64 1006.0
20260904182809 96 168 0.0 0.0 0.00 0.00 0.00 62 1006.0
20260904182353 95 174 1.0 2.0 0.00 0.00 0.00 63 1006.0
20260904181937 96 231 2.0 3.0 0.00 0.00 0.00 61 1006.0
20260904181505 95 242 3.0 3.0 0.00 0.00 0.00 63 1006.0
20260904181048 95 195 6.0 7.0 0.00 0.00 0.00 61 1006.0
20260904180616 96 131 3.0 3.0 0.00 0.00 0.00 61 1006.0
20260904180128 95 249 4.0 4.0 0.00 0.00 0.00 60 1006.4
20260904175656 96 221 2.0 2.0 0.00 0.00 0.00 63 1006.4
20260904175224 96 210 1.0 1.0 0.00 0.00 0.00 61 1006.7
20260904174806 95 268 3.0 3.0 0.00 0.00 0.00 65 1006.4
20260904173411 94 220 5.0 6.0 0.00 0.00 0.00 62 1007.1
20260904172505 95 215 1.0 1.0 0.00 0.00 0.00 65 1007.1
20260904172047 94 189 1.0 1.0 0.00 0.00 0.00 65 1007.4
20260904171629 94 192 2.0 2.0 0.00 0.00 0.00 67 1007.4